Regional Weather Roundup
Issued by NWS Charleston, SC

Current Version | Previous Version | Graphics & Text | Print | Product List | Glossary On
Versions: 1 2 3 4 5 6 7 8 9 10 11 12 13 14 15 16 17 18 19 20 21 22 23 24 25 26 27 28 29 30 31 32 33 34 35 36 37 38 39 40 41 42 43 44 45 46 47 48 49 50
000
ASUS42 KCHS 191627
RWRCHS

REGIONAL WEATHER ROUNDUP
NATIONAL WEATHER SERVICE CHARLESTON SC
1100 AM EST SUN NOV 19 2017

NOTE: "FAIR" INDICATES FEW OR NO CLOUDS BELOW 12,000 FEET WITH NO
SIGNIFICANT WEATHER AND/OR OBSTRUCTIONS TO VISIBILITY.

NOT ALL STATIONS ARE QUALITY CONTROLLED. USE DATA WITH CAUTION...
ESPECIALLY DEWPOINT OBSERVATIONS.

SCZ027-030-031-034>040-042>050-191700-
...SOUTHEAST SOUTH CAROLINA...

CITY           SKY/WX    TMP DP  RH WIND       PRES   REMARKS
N CHARLESTON   MOSUNNY   65  47  52 NW16G23   29.86S
WATERFRONT PRK NOT AVBL
JOHNS ISLAND   FAIR      66  48  52 NW15G21   29.86S
PINOPOLIS        N/A     59  48  67 NW15      29.78R
MONCKS CORNER  FAIR      61  39  44 N8        29.87S
SUMMERVILLE    FAIR      63  45  51 NW9       29.89S
BEAUFORT MCAS  NOT AVBL
BEAUFORT ARPT  FAIR      61  46  59 NW16G22   29.89F HAZE
HILTON HEAD IS SUNNY     61  45  55 W7G21     29.90S
WALTERBORO     MOSUNNY   59  43  55 NW12G20   29.91R
ALLENDALE      FAIR      59  41  51 VRB7      29.92S

...SOUTHERN MIDLANDS AND PEE DEE...

CITY           SKY/WX    TMP DP  RH WIND       PRES   REMARKS
GEORGETOWN     FAIR      64  46  52 NW12G18   29.84S
KINGSTREE      FAIR      61  36  39 NW9       29.87S
ORANGEBURG     SUNNY     59  40  49 NW13      29.90S
BARNWELL         N/A     61  43  51 W8G14     29.93S
AIKEN          FAIR      57  39  51 NW9       29.96S
MANNING        FAIR      61  43  51 MISG      29.89S
COLUMBIA       MOSUNNY   61  36  39 NW12G18   29.91R
SUMTER         SUNNY     61  34  36 N13G18    29.86S
FLORENCE       SUNNY     62  37  39 N12       29.86S
MYRTLE BEACH   MOSUNNY   64  44  48 NW14G22   29.83S
N MYRTLE BEACH MOSUNNY   63  44  50 NW16G24   29.81R

$$

GAZ063-065-086>088-099>101-113>116-118-119-134>141-150-191700-
...SOUTHEAST GEORGIA...

CITY           SKY/WX    TMP DP  RH WIND       PRES   REMARKS
SAVANNAH ARPT  MOSUNNY   62  43  49 NW16      29.93S
HUNTER AAF     SUNNY     62  44  52 NW8G17    29.90R
FORT STEWART   SUNNY     63  43  48 NW15      29.92S
STATESBORO     SUNNY     58  39  48 NW13      29.95F
SYLVANIA       SUNNY     59  45  60 NW12      29.95S
CLAXTON        FAIR      60  45  56 W12G17    29.96S

...CSRA...CENTRAL AND FAR SOUTHEAST GEORGIA...

CITY           SKY/WX    TMP DP  RH WIND       PRES   REMARKS
THOMSON        SUNNY     55  36  48 N13       30.02S
AUGUSTA-BUSH   SUNNY     59  39  47 NW13G23   29.95R
AUGUSTA-DANIEL SUNNY     58  38  47 NW10      29.96R
SWAINSBORO     FAIR      55  41  58 NW10G18   29.98F
VIDALIA        SUNNY     59  43  55 NW12      29.99S
EASTMAN        FAIR      57  30  34 NW14      30.04R
HAZLEHURST     FAIR      58  29  33 NW9G16    29.98S
ALMA           SUNNY     60  42  51 NW12G18   29.97F
WAYCROSS       MOSUNNY   62  40  44 NW15      29.97S
JESUP          FAIR      63  45  51 CALM      29.95F
BAXLEY         FAIR      57  41  54 NW14      29.97S
BRUNSWICK      SUNNY     63  46  55 W7G22     29.94F
SAINT SIMONS   SUNNY     62  50  64 W10       29.93R

$$

SCZ027-028-034-036>038-045-046-048>050-GAZ119-141-191700-
...LAKE AND SUPPLEMENTAL COASTAL OBSERVATIONS...

STATION/POSITION TIME  TEMP    WIND        PRES    WAVE   SWELL
                       AIR SEA DIR/SP/G            HT/PER HT/PER/DIR
                 (UTC) (F)     (DEG/KT/KT) (MB)    (FT/S) (FT/S/D)
WINYAH BAY       1545   63     330/ 12     1010.0R
LAKE MURRAY      1520   56     320/  4/ 12 1012.2R
ACE BASIN NERRS  1545   63     310/  5     1012.0S
FORT PULASKI     1600   58 62  310/ 18/ 22 1013.0
SAPELO ISLAND    1600   61     320/ 12     1013.0

$$

ANZ835-935-AMZ111-154-330-350-352-354-370-450-454-472-191700-
...C-MAN AND BUOY OBSERVATIONS...

STATION/POSITION TIME  TEMP    WIND        PRES    WAVE   SWELL
                       AIR SEA DIR/SP/G            HT/PER HT/PER/DIR
                 (UTC) (F)     (DEG/KT/KT) (MB)    (FT/S) (FT/S/D)
BUOY 41004       1610   65 74  290/ 19/ 23 1010.0
BUOY 41008       1550   60 69  290/ 17/ 21 1012.8R   4/ 4   2/130/ 9
FOLLY BEACH CMAN 1600   63     310/  8/ 14 1011.6R
CAPERS NEARSHORE 1608   61 63  320/ 16/ 21 1010.3R
FRIPP NEARSHORE  1608   58 62  300/ 21/ 27 1012.0R


STATION/POSITION TIME  TEMP    WIND        PRES    WAVE   SWELL
                       AIR SEA DIR/SP/G            HT/PER HT/PER/DIR
                 (UTC) (F)     (DEG/KT/KT) (MB)    (FT/S) (FT/S/D)
5E ST. MARYS GA  1600      67                N/A     3/ 3
FRYING PAN BUOY  1610   66 71  280/ 21/ 23 1008.1
BUOY 41025       1610   62 65  290/ 23/ 31 1005.7
CAPE LOOKOUT NC  1600          310/ 15/ 21 1007.0R
BUOY 41002       1550   76 76  230/ 23/ 27 1009.7F   8/ 6   2/ 60/11
BUOY 41010       NOT AVBL
ST AUGUSTINE FL  1600   68 69  240/  9/ 11 1013.2F


$$




USA.gov is the U.S. government's official web portal to all federal, state and local government web resources and services.